User: anonymous   Login
Location: Unspecified
(0.0000°N, 0.0000°E)
Time: 23:07:44
(UTC+00:00)
Language:

STSS DEMO 2 (USA 209) - Orbit

View from above orbital plane
View from above orbital plane
View from above satellite
View from above satellite

Ground track
Ground track

The orbit is defined by the following mean orbital elements,

1 35938U 09052B   26010.73325737 0.00000040  00000-0  18803-3 0    00
2 35938  57.9848 235.1672 0021008  69.8134 290.1866 12.74862161    09
Epoch (UTC): 10 January 2026 17:35:53
Eccentricity: 0.0021008
inclination: 57.9848°
perigee height: 1346 km
apogee height: 1378 km
right ascension of ascending node: 235.1672°
argument of perigee: 69.8134°
revolutions per day: 12.74862161
mean anomaly at epoch: 290.1866°

The dashed part of the orbit path shows where the satellite is in the earth's shadow,  

DLR